• Processing (Info)

  • MPEC 2010-J81 : 2010 GF65

    The following Minor Planet Electronic Circular may be linked-to from your own Web pages, but must not otherwise be redistributed electronically.

    A form allowing access to any MPEC is at the bottom of this page.


    Read MPEC 2010-J80 Read MPEC 2010-J82


    M.P.E.C. 2010-J81                                Issued 2010 May 13, 15:56 UT
    
         The Minor Planet Electronic Circulars contain information on unusual
             minor planets and routine data on comets.  They are published
       on behalf of Commission 20 of the International Astronomical Union by the
              Minor Planet Center, Smithsonian Astrophysical Observatory,
                              Cambridge, MA 02138, U.S.A.
    
                 Prepared using the Tamkin Foundation Computer Network
    
                                  MPC@CFA.HARVARD.EDU
           URL https://www.minorplanetcenter.org/iau/mpc.html  ISSN 1523-6714
    
                                       2010 GF65
    
    Additional Observations:
         K10G65F  C2010 05 08.07304 14 13 40.084-22 01 33.65         20.9 R EJ081807
         K10G65F  C2010 05 08.11668 14 13 39.749-22 01 32.17         21.1 R EJ081807
         K10G65F  C2010 05 09.98322 14 13 25.778-22 00 26.17         20.7 R EJ081809
         K10G65F  C2010 05 10.06626 14 13 25.148-22 00 23.22         21.0 R EJ081809
         K10G65F  C2010 05 10.15119 14 13 24.470-22 00 20.41         20.8 R EJ081809
    
    Observer details:
    807 Cerro Tololo.  Observers D. Rabinowitz, S. Tourtellotte.  1.3-m reflector
        + CCD.
    809 European Southern Observatory, La Silla.  Observers D. Rabinowitz,
        S. Tourtellotte.  1.0-m reflector + CCD.
    
    Orbital elements:
    2010 GF65
    Epoch 2010 Apr. 14.0 TT = JDT 2455300.5                 MPC
    M 348.49573              (2000.0)            P               Q
    n   0.00279654     Peri.  267.02302     -0.12274900     +0.99233595
    a  49.8947947      Node   355.84501     -0.81469455     -0.10893375
    e   0.5459294      Incl.   11.31371     -0.56674992     -0.05833350
    P 352              H    7.3           G   0.15
    From 14 observations 2010 Apr. 13-May 10.
    
    Ephemeris:
    2010 GF65                a,e,i = 49.89, 0.55, 11                 q = 22.656
    Date    TT    R. A. (2000) Decl.     Delta      r     Elong.  Phase     V
    2010 05 04    14 14.18   -22 03.9   24.082   25.077   170.7     0.4    21.3
    2010 05 14    14 12.94   -21 58.1   24.096   25.066   163.4     0.7    21.3
    2010 05 24    14 11.78   -21 52.0   24.139   25.055   154.3     1.0    21.4
    2010 06 03    14 10.75   -21 46.1   24.208   25.044   144.8     1.3    21.4
    2010 06 13    14 09.90   -21 40.5   24.302   25.034   135.3     1.6    21.4
    2010 06 23    14 09.26   -21 35.5   24.415   25.023   125.8     1.9    21.5
    2010 07 03    14 08.85   -21 31.3   24.546   25.012   116.2     2.1    21.5
    2010 07 13    14 08.69   -21 28.1   24.689   25.001   106.8     2.2    21.5
    2010 07 23    14 08.80   -21 26.2   24.841   24.990    97.3     2.3    21.5
    2010 08 02    14 09.16   -21 25.5   24.996   24.980    87.9     2.3    21.5
    2010 08 12    14 09.78   -21 26.1   25.150   24.969    78.6     2.3    21.5
    2010 08 22    14 10.66   -21 28.2   25.298   24.958    69.3     2.2    21.6
    2010 09 01    14 11.76   -21 31.6   25.437   24.948    60.0     2.0    21.6
    2010 09 11    14 13.07   -21 36.3   25.562   24.937    50.7     1.8    21.5
    2010 09 21    14 14.57   -21 42.2   25.669   24.926    41.5     1.5    21.5
    2010 10 01    14 16.22   -21 49.3   25.756   24.916    32.4     1.2    21.5
    
    Brian G. Marsden             (C) Copyright 2010 MPC           M.P.E.C. 2010-J81
    

    Read MPEC 2010-J80 Read MPEC 2010-J82


    MPEC number:

    Enter an MPEC number in one of the following forms:

    • 1997-B01 (the full form)
    • J97B01 (the packed version of the full form)
    • B01 (the abbreviated form)